| time (UTC) | temp C | wind direction | speed KPH | gust KPH | rain 1hr cm | rain 24hr cm | rain mn cm | humidity % | barometer mb |
| 20260510201821 | 20 | 22 | 14.5 | 25.7 | 0.00 | 0.00 | 0.00 | 46 | 1018.0 |
| 20260510200324 | 20 | 42 | 12.9 | 24.1 | 0.00 | 0.00 | 0.00 | 47 | 1018.3 |
| 20260510194827 | 21 | 65 | 17.7 | 29.0 | 0.00 | 0.00 | 0.00 | 43 | 1018.4 |
| 20260510193353 | 21 | 26 | 14.5 | 24.1 | 0.00 | 0.00 | 0.00 | 43 | 1018.5 |
| 20260510191815 | 20 | 19 | 12.9 | 24.1 | 0.00 | 0.00 | 0.00 | 49 | 1018.5 |
| 20260510190319 | 20 | 42 | 17.7 | 25.7 | 0.00 | 0.00 | 0.00 | 45 | 1018.4 |
| 20260510184825 | 20 | 70 | 19.3 | 30.6 | 0.00 | 0.00 | 0.00 | 41 | 1018.3 |
| 20260510183328 | 21 | 76 | 22.5 | 37.0 | 0.00 | 0.00 | 0.00 | 42 | 1018.5 |
| 20260510181815 | 21 | 42 | 20.9 | 32.2 | 0.00 | 0.00 | 0.00 | 41 | 1018.4 |
| 20260510180319 | 21 | 53 | 20.9 | 29.0 | 0.00 | 0.00 | 0.00 | 43 | 1018.3 |
| 20260510174820 | 21 | 355 | 19.3 | 32.2 | 0.00 | 0.00 | 0.00 | 45 | 1018.3 |
| 20260510173345 | 21 | 28 | 19.3 | 24.1 | 0.00 | 0.00 | 0.00 | 46 | 1018.3 |
| 20260510171825 | 21 | 59 | 14.5 | 25.7 | 0.00 | 0.00 | 0.00 | 45 | 1018.1 |
| 20260510170332 | 21 | 63 | 19.3 | 30.6 | 0.00 | 0.00 | 0.00 | 47 | 1017.9 |
| 20260510164833 | 20 | 55 | 16.1 | 29.0 | 0.00 | 0.00 | 0.00 | 46 | 1018.0 |
| 20260510163315 | 20 | 35 | 17.7 | 27.4 | 0.00 | 0.00 | 0.00 | 43 | 1018.0 |
| 20260510161821 | 20 | 59 | 14.5 | 24.1 | 0.00 | 0.00 | 0.00 | 48 | 1017.9 |
| 20260510160324 | 19 | 49 | 16.1 | 38.6 | 0.00 | 0.00 | 0.00 | 50 | 1017.7 |
| 20260510154829 | 18 | 22 | 17.7 | 25.7 | 0.00 | 0.00 | 0.00 | 50 | 1017.2 |
| 20260510153332 | 18 | 61 | 17.7 | 33.8 | 0.00 | 0.00 | 0.00 | 50 | 1017.0 |
| 20260510151814 | 18 | 63 | 20.9 | 32.2 | 0.00 | 0.00 | 0.00 | 52 | 1016.9 |
| 20260510150321 | 17 | 355 | 22.5 | 37.0 | 0.00 | 0.00 | 0.00 | 53 | 1017.0 |
| 20260510144823 | 17 | 44 | 20.9 | 29.0 | 0.00 | 0.00 | 0.00 | 55 | 1016.9 |
| 20260510143329 | 16 | 33 | 17.7 | 25.7 | 0.00 | 0.00 | 0.00 | 61 | 1017.1 |
| 20260510141832 | 16 | 22 | 12.9 | 24.1 | 0.00 | 0.00 | 0.00 | 62 | 1017.4 |
| 20260510140314 | 16 | 28 | 14.5 | 19.3 | 0.00 | 0.00 | 0.00 | 61 | 1017.4 |
| 20260510134818 | 15 | 24 | 12.9 | 22.5 | 0.00 | 0.00 | 0.00 | 62 | 1017.3 |
| 20260510133340 | 16 | 42 | 12.9 | 25.7 | 0.00 | 0.00 | 0.00 | 63 | 1016.8 |
| 20260510131821 | 16 | 42 | 14.5 | 24.1 | 0.00 | 0.00 | 0.00 | 64 | 1016.4 |
| 20260510130328 | 16 | 38 | 16.1 | 22.5 | 0.00 | 0.00 | 0.00 | 66 | 1016.0 |
| 20260510124847 | 16 | 53 | 12.9 | 22.5 | 0.00 | 0.00 | 0.00 | 69 | 1015.4 |
| 20260510123347 | 16 | 54 | 12.9 | 25.7 | 0.00 | 0.00 | 0.00 | 69 | 1015.3 |
| 20260510121831 | 15 | 57 | 14.5 | 25.7 | 0.00 | 0.00 | 0.00 | 70 | 1014.8 |
| 20260510120333 | 15 | 46 | 16.1 | 24.1 | 0.00 | 0.00 | 0.00 | 74 | 1014.3 |
| 20260510114819 | 15 | 31 | 14.5 | 22.5 | 0.00 | 0.03 | 0.00 | 78 | 1014.2 |
| 20260510113320 | 14 | 32 | 12.9 | 20.9 | 0.00 | 0.03 | 0.00 | 79 | 1013.9 |
| 20260510111821 | 14 | 32 | 9.7 | 16.1 | 0.00 | 0.03 | 0.00 | 80 | 1013.6 |
| 20260510110327 | 14 | 43 | 8.0 | 9.7 | 0.00 | 0.03 | 0.00 | 80 | 1013.7 |
| 20260510104828 | 14 | 38 | 6.4 | 11.3 | 0.00 | 0.03 | 0.00 | 80 | 1013.7 |
| 20260510103333 | 14 | 37 | 6.4 | 12.9 | 0.00 | 0.03 | 0.00 | 81 | 1013.4 |
| 20260510101834 | 15 | 14 | 8.0 | 14.5 | 0.00 | 0.03 | 0.00 | 81 | 1013.3 |
| 20260510100316 | 15 | 44 | 8.0 | 16.1 | 0.00 | 0.03 | 0.00 | 83 | 1012.7 |
| 20260510094820 | 14 | 46 | 8.0 | 16.1 | 0.00 | 0.03 | 0.00 | 86 | 1012.6 |
| 20260510093342 | 13 | 10 | 6.4 | 8.0 | 0.00 | 0.03 | 0.00 | 88 | 1012.5 |
| 20260510091828 | 13 | 5 | 4.8 | 6.4 | 0.00 | 0.03 | 0.00 | 89 | 1012.4 |
| 20260510090331 | 13 | 11 | 3.2 | 6.4 | 0.00 | 0.03 | 0.00 | 90 | 1012.1 |
| 20260510084832 | 13 | 331 | 1.6 | 4.8 | 0.00 | 0.03 | 0.00 | 90 | 1011.8 |
| 20260510083317 | 13 | 227 | 0.0 | 0.0 | 0.00 | 0.03 | 0.00 | 90 | 1011.4 |
| 20260510081818 | 13 | 227 | 0.0 | 0.0 | 0.00 | 0.03 | 0.00 | 90 | 1011.4 |
| 20260510080325 | 13 | 227 | 0.0 | 0.0 | 0.00 | 0.03 | 0.00 | 89 | 1011.2 |
| 20260510074826 | 15 | 227 | 0.0 | 0.0 | 0.00 | 0.03 | 0.00 | 89 | 1011.4 |
| 20260510073347 | 15 | 227 | 0.0 | 0.0 | 0.00 | 0.03 | 0.00 | 89 | 1011.4 |
| 20260510071831 | 15 | 227 | 0.0 | 0.0 | 0.00 | 0.03 | 0.00 | 89 | 1011.1 |
| 20260510070354 | 15 | 227 | 0.0 | 1.6 | 0.00 | 0.03 | 0.00 | 88 | 1011.2 |
| 20260510064814 | 15 | 227 | 0.0 | 4.8 | 0.00 | 0.03 | 0.00 | 88 | 1011.1 |
| 20260510063319 | 16 | 227 | 0.0 | 0.0 | 0.00 | 0.03 | 0.00 | 87 | 1011.0 |
| 20260510061820 | 16 | 227 | 0.0 | 0.0 | 0.00 | 0.03 | 0.00 | 87 | 1010.7 |
| 20260510060343 | 16 | 227 | 0.0 | 3.2 | 0.00 | 0.03 | 0.00 | 86 | 1010.5 |
| 20260510054828 | 16 | 227 | 0.0 | 1.6 | 0.00 | 0.05 | 0.00 | 85 | 1010.5 |
| 20260510053329 | 16 | 227 | 1.6 | 3.2 | 0.00 | 0.05 | 0.00 | 82 | 1010.8 |
| 20260510051814 | 17 | 227 | 0.0 | 4.8 | 0.00 | 0.05 | 0.00 | 83 | 1010.7 |
| 20260510050338 | 17 | 227 | 1.6 | 4.8 | 0.00 | 0.05 | 0.00 | 82 | 1010.6 |
| 20260510044837 | 17 | 227 | 1.6 | 3.2 | 0.00 | 0.05 | 0.05 | 82 | 1010.9 |
| 20260510043342 | 16 | 10 | 0.0 | 6.4 | 0.00 | 0.05 | 0.05 | 83 | 1010.9 |
| 20260510041823 | 17 | 173 | 0.0 | 0.0 | 0.00 | 0.05 | 0.05 | 80 | 1010.6 |
| 20260510040327 | 17 | 173 | 0.0 | 1.6 | 0.00 | 0.05 | 0.05 | 80 | 1010.4 |
| 20260510034832 | 17 | 173 | 1.6 | 3.2 | 0.00 | 0.05 | 0.05 | 78 | 1010.2 |
| 20260510033333 | 18 | 173 | 0.0 | 3.2 | 0.00 | 0.05 | 0.05 | 76 | 1010.0 |
| 20260510031818 | 18 | 173 | 1.6 | 3.2 | 0.00 | 0.05 | 0.05 | 75 | 1009.6 |
| 20260510030321 | 19 | 173 | 3.2 | 4.8 | 0.00 | 0.05 | 0.05 | 72 | 1009.3 |
| 20260510024821 | 18 | 173 | 3.2 | 6.4 | 0.00 | 0.05 | 0.05 | 72 | 1009.1 |
| 20260510023346 | 18 | 197 | 3.2 | 6.4 | 0.00 | 0.05 | 0.05 | 74 | 1008.9 |
| 20260510021826 | 18 | 199 | 3.2 | 4.8 | 0.00 | 0.05 | 0.05 | 75 | 1008.6 |
| 20260510020328 | 18 | 199 | 3.2 | 4.8 | 0.00 | 0.05 | 0.05 | 74 | 1008.2 |
| 20260510014832 | 19 | 199 | 3.2 | 4.8 | 0.00 | 0.05 | 0.05 | 73 | 1007.7 |
| 20260510013331 | 20 | 199 | 1.6 | 4.8 | 0.00 | 0.05 | 0.05 | 70 | 1007.3 |
| 20260510011815 | 22 | 193 | 3.2 | 4.8 | 0.00 | 0.05 | 0.05 | 65 | 1007.2 |
| 20260510010335 | 23 | 193 | 1.6 | 4.8 | 0.00 | 0.05 | 0.05 | 57 | 1006.9 |
| 20260510004816 | 24 | 175 | 3.2 | 8.0 | 0.00 | 0.13 | 0.05 | 52 | 1006.7 |
| 20260510003321 | 25 | 209 | 4.8 | 9.7 | 0.00 | 0.13 | 0.05 | 49 | 1006.7 |
| 20260510001822 | 26 | 177 | 6.4 | 9.7 | 0.00 | 0.13 | 0.05 | 47 | 1006.7 |
| 20260510000326 | 26 | 208 | 8.0 | 11.3 | 0.00 | 0.13 | 0.05 | 44 | 1006.7 |
| 20260509234830 | 27 | 198 | 6.4 | 12.9 | 0.00 | 0.13 | 0.05 | 43 | 1006.6 |
| 20260509233331 | 27 | 196 | 1.6 | 12.9 | 0.00 | 0.13 | 0.05 | 46 | 1006.6 |
| 20260509231816 | 27 | 201 | 6.4 | 12.9 | 0.00 | 0.13 | 0.05 | 41 | 1006.6 |
| 20260509230319 | 27 | 171 | 6.4 | 11.3 | 0.00 | 0.13 | 0.05 | 41 | 1006.5 |
| 20260509224819 | 27 | 203 | 4.8 | 11.3 | 0.00 | 0.13 | 0.05 | 42 | 1006.6 |
| 20260509223324 | 27 | 190 | 8.0 | 11.3 | 0.00 | 0.13 | 0.05 | 38 | 1006.5 |
| 20260509221826 | 27 | 201 | 8.0 | 14.5 | 0.00 | 0.13 | 0.05 | 39 | 1006.6 |
| 20260509220334 | 28 | 211 | 9.7 | 17.7 | 0.00 | 0.13 | 0.05 | 39 | 1006.5 |
| 20260509214814 | 29 | 206 | 9.7 | 14.5 | 0.00 | 0.13 | 0.05 | 35 | 1006.5 |
| 20260509213315 | 28 | 246 | 8.0 | 19.3 | 0.00 | 0.13 | 0.05 | 35 | 1006.5 |
| 20260509211821 | 29 | 187 | 8.0 | 14.5 | 0.00 | 0.13 | 0.05 | 36 | 1006.6 |
| 20260509210323 | 28 | 256 | 4.8 | 16.1 | 0.00 | 0.13 | 0.05 | 35 | 1006.9 |
| 20260509204829 | 28 | 218 | 4.8 | 14.5 | 0.00 | 0.13 | 0.05 | 34 | 1007.1 |
| 20260509203331 | 28 | 246 | 9.7 | 16.1 | 0.00 | 0.13 | 0.05 | 31 | 1007.2 |